Flag for Guadeloupe Weather past 2 weeks in Basse-Terre, Guadeloupe

Now
79 °F

Warm.


Feels Like: 82 °F
Forecast: 76 / 84 °F
Wind: 1 mph from East

Location: Le Raizet - Guadeloupe

Current Time: Sep 2, 2015 at 4:35:08 AM

Latest Report: Sep 2, 2015 at 4:00 AM


Visibility: N/A

Pressure: 29.98 "Hg

Humidity: 89%

Dew point: 75 °F

Location of Basse-TerreLocation

Historic Weather in Basse-Terre — Graph

°F

Basse-Terre temperature yesterday

Maximum temperature yesterday: 88 °F (at 10:00 AM)
Minimum temperature yesterday: 77 °F (at 2:30 AM)
Average temperature yesterday: 83 °F

Past Weeks' High & Low Weather Summary

 TemperatureHumidityPressure
High91 °F (Aug 19, 12:30 PM)100% (Aug 20, 5:00 AM)30.04 "Hg (Aug 20, 5:00 AM)
Low73 °F (Aug 18, 3:00 AM)46% (Aug 19, 12:30 PM)29.71 "Hg (Aug 27, 3:00 AM)
Average82 °F81%29.94 "Hg
* Reported Aug 18 3:00 AM — Sep 2 3:30 AM, Basse-Terre, Weather by CustomWeather, © 2015

Note: Actual official high and low records may vary slightly from our data, if they occured in-between our weather recording intervals... More about our weather records

Advertising

Basse-Terre weather history for previous 24 hours

 ConditionsComfort  
Time TempWeatherWind HumidityBarometerVisibility
3:30 AM
Wed, Sep 2
79 °FWarm.5 mph89%29.98 "HgN/A
3:00 AM79 °FWarm.5 mph89%29.98 "HgN/A
2:30 AM79 °FWarm.6 mph89%29.98 "HgN/A
2:00 AM79 °FPassing clouds.5 mph94%29.98 "HgN/A
1:30 AM79 °FPassing clouds.6 mph94%29.98 "HgN/A
1:00 AM79 °FWarm.6 mph94%30.01 "HgN/A
12:00 AM79 °FWarm.3 mph94%30.01 "HgN/A
11:30 PM
Tue, Sep 1
79 °FPassing clouds.5 mph94%30.04 "HgN/A
11:00 PM79 °FWarm.3 mph94%30.04 "HgN/A
10:30 PM79 °FPassing clouds.3 mph94%30.04 "HgN/A
10:00 PM81 °FWarm.2 mph89%30.04 "HgN/A
9:30 PM81 °FWarm.3 mph89%30.04 "HgN/A
9:00 PM81 °FWarm.5 mph89%30.04 "HgN/A
8:30 PM81 °FWarm.5 mph89%30.01 "HgN/A
8:00 PM82 °FWarm.6 mph84%30.01 "HgN/A
7:30 PM82 °FPassing clouds.5 mph84%29.98 "HgN/A
7:00 PM82 °FWarm.5 mph84%29.98 "HgN/A
5:30 PM84 °FPartly sunny.10 mph79%29.95 "HgN/A
5:00 PM86 °FPartly sunny.10 mph75%29.95 "HgN/A
4:30 PM86 °FPassing clouds.12 mph70%29.95 "HgN/A
4:00 PM88 °FPartly sunny.13 mph66%29.95 "HgN/A
3:30 PM88 °FScattered clouds.12 mph66%29.95 "HgN/A
3:00 PM88 °FPassing clouds.12 mph66%29.95 "HgN/A
2:30 PM88 °FPassing clouds.13 mph66%29.95 "HgN/A
2:00 PM88 °FScattered clouds.14 mph66%29.95 "HgN/A
1:30 PM88 °FScattered clouds.13 mph70%29.98 "HgN/A
1:00 PM88 °FBroken clouds.15 mph75%29.98 "HgN/A
12:30 PM88 °FPartly sunny.14 mph70%30.01 "HgN/A
12:00 PM88 °FScattered clouds.15 mph70%30.01 "HgN/A
11:30 AM88 °FScattered clouds.13 mph70%30.01 "HgN/A
11:00 AM88 °FPartly sunny.14 mph75%30.04 "HgN/A
10:30 AM88 °FBroken clouds.12 mph75%30.04 "HgN/A
10:00 AM88 °FPartly sunny.12 mph70%30.04 "HgN/A
9:30 AM86 °FMostly cloudy.12 mph75%30.04 "HgN/A
9:00 AM86 °FPartly sunny.8 mph79%30.01 "HgN/A
8:30 AM86 °FPartly sunny.9 mph79%30.01 "HgN/A
8:00 AM84 °FPartly sunny.6 mph84%30.01 "HgN/A
7:30 AM82 °FPassing clouds.6 mph89%30.01 "HgN/A
7:00 AM81 °FPartly sunny.2 mph94%29.98 "HgN/A
6:30 AM79 °FBroken clouds.3 mph94%29.98 "HgN/A
6:00 AM77 °FWarm.No wind100%29.98 "HgN/A
5:30 AM77 °FPartly cloudy.No wind100%29.98 "HgN/A
5:00 AM77 °FPartly cloudy.2 mph100%29.98 "HgN/A
4:30 AM77 °FPassing clouds.No wind100%29.98 "HgN/A
4:00 AM79 °FPassing clouds.1 mph89%29.98 "HgN/A
Weather by CustomWeather, © 2015

See weather overviewHow to use our weather pages